When you browse on this site, cookies collect data to enhance your experience and personalize the content and advertising you see.
Visit our Privacy Policy to learn more. By continuing to use the site, you agree to this use of cookies and data.
  • In Hungary
  • List of Countries
  • For 7 days
  • Water Temperature
  • Weather Map
  • News
  • Weather Widgets
  • user-avatar
    Login

    Hourly Weather Cehok

    Today, 16 October, Wednesday

    Time Temperature Precipitation Wind Pressure Humidity
    00:00 +11°C° 0 mm 1 mps 631 mmHg 41%
    01:00 +10°C° 0 mm 2 mps 631 mmHg 39%
    02:00 +9°C° 0 mm 2 mps 631 mmHg 38%
    03:00 +9°C° 0 mm 2 mps 631 mmHg 36%
    04:00 +9°C° 0 mm 2 mps 631 mmHg 36%
    05:00 +9°C° 0 mm 2 mps 631 mmHg 35%
    06:00 +9°C° 0 mm 2 mps 631 mmHg 35%
    07:00 +12°C° 0 mm 1 mps 632 mmHg 32%
    08:00 +15°C° 0 mm 1 mps 633 mmHg 30%
    09:00 +17°C° 0 mm 0 mps 634 mmHg 27%
    10:00 +19°C° 0 mm 1 mps 634 mmHg 27%
    11:00 +20°C° 0 mm 1 mps 634 mmHg 26%
    12:00 +21°C° 0 mm 1 mps 634 mmHg 25%
    13:00 +20°C° 0 mm 2 mps 634 mmHg 28%
    14:00 +19°C° 0 mm 2 mps 634 mmHg 30%
    15:00 +19°C° 0 mm 2 mps 634 mmHg 32%
    16:00 +18°C° 0 mm 1 mps 633 mmHg 40%
    17:00 +14°C° 0 mm 1 mps 632 mmHg 47%
    18:00 +11°C° 0 mm 0 mps 632 mmHg 55%
    19:00 +11°C° 0 mm 0 mps 632 mmHg 55%
    20:00 +10°C° 0 mm 0 mps 632 mmHg 56%
    21:00 +11°C° 0 mm 1 mps 632 mmHg 56%
    22:00 +10°C° 0 mm 1 mps 632 mmHg 56%
    23:00 +10°C° 0 mm 1 mps 632 mmHg 56%

    Tomorrow, 17 October, Thursday

    Time Temperature Precipitation Wind Pressure Humidity
    00:00 +9°C° 0 mm 1 mps 631 mmHg 56%
    01:00 +9°C° 0 mm 1 mps 631 mmHg 57%
    02:00 +9°C° 0 mm 1 mps 631 mmHg 57%
    03:00 +9°C° 0 mm 1 mps 632 mmHg 58%
    04:00 +9°C° 0 mm 1 mps 632 mmHg 58%
    05:00 +9°C° 0 mm 1 mps 632 mmHg 58%
    06:00 +8°C° 0 mm 1 mps 632 mmHg 58%
    07:00 +11°C° 0 mm 1 mps 632 mmHg 52%
    08:00 +13°C° 0 mm 1 mps 633 mmHg 47%
    09:00 +16°C° 0 mm 2 mps 634 mmHg 42%
    10:00 +17°C° 0 mm 2 mps 634 mmHg 39%
    11:00 +18°C° 0 mm 2 mps 635 mmHg 37%
    12:00 +19°C° 0 mm 2 mps 635 mmHg 34%
    13:00 +18°C° 0 mm 2 mps 634 mmHg 36%
    14:00 +18°C° 0 mm 2 mps 634 mmHg 37%
    15:00 +18°C° 0 mm 2 mps 634 mmHg 38%
    16:00 +16°C° 0 mm 2 mps 633 mmHg 47%
    17:00 +13°C° 0 mm 1 mps 632 mmHg 56%
    18:00 +11°C° 0 mm 1 mps 631 mmHg 64%
    19:00 +11°C° 0 mm 1 mps 631 mmHg 63%
    20:00 +10°C° 0 mm 1 mps 631 mmHg 62%
    21:00 +10°C° 0 mm 1 mps 631 mmHg 61%
    22:00 +9°C° 0 mm 1 mps 631 mmHg 60%
    23:00 +9°C° 0 mm 1 mps 631 mmHg 59%

    Day after tomorrow, 18 October, Friday

    Time Temperature Precipitation Wind Pressure Humidity
    00:00 +9°C° 0 mm 1 mps 630 mmHg 58%
    01:00 +9°C° 0 mm 1 mps 630 mmHg 58%
    02:00 +9°C° 0 mm 1 mps 630 mmHg 59%
    03:00 +9°C° 0 mm 1 mps 630 mmHg 59%
    04:00 +9°C° 0 mm 1 mps 630 mmHg 60%
    05:00 +9°C° 0 mm 1 mps 630 mmHg 61%
    06:00 +9°C° 0 mm 1 mps 630 mmHg 62%
    07:00 +12°C° 0 mm 1 mps 631 mmHg 56%
    08:00 +15°C° 0 mm 1 mps 631 mmHg 49%
    09:00 +16°C° 0 mm 0 mps 632 mmHg 42%
    10:00 +19°C° 0 mm 1 mps 633 mmHg 39%
    11:00 +20°C° 0 mm 1 mps 633 mmHg 37%
    12:00 +21°C° 0 mm 1 mps 633 mmHg 34%
    13:00 +21°C° 0 mm 1 mps 632 mmHg 36%
    14:00 +20°C° 0 mm 2 mps 632 mmHg 37%
    15:00 +19°C° 0 mm 2 mps 632 mmHg 39%
    16:00 +18°C° 0 mm 1 mps 631 mmHg 47%
    17:00 +15°C° 0 mm 1 mps 630 mmHg 55%
    18:00 +13°C° 0 mm 1 mps 630 mmHg 63%
    19:00 +13°C° 0 mm 1 mps 630 mmHg 61%
    20:00 +12°C° 0 mm 1 mps 630 mmHg 60%
    21:00 +12°C° 0 mm 1 mps 630 mmHg 59%
    22:00 +11°C° 0 mm 1 mps 630 mmHg 59%
    23:00 +11°C° 0 mm 1 mps 630 mmHg 58%

    19 October, Saturday

    Time Temperature Precipitation Wind Pressure Humidity
    00:00 +11°C° 0 mm 1 mps 629 mmHg 58%
    01:00 +10°C° 0 mm 1 mps 629 mmHg 58%
    02:00 +10°C° 0 mm 1 mps 629 mmHg 59%
    03:00 +10°C° 0 mm 1 mps 629 mmHg 60%
    04:00 +10°C° 0 mm 1 mps 629 mmHg 61%
    05:00 +10°C° 0 mm 1 mps 629 mmHg 62%
    06:00 +10°C° 0 mm 1 mps 629 mmHg 63%
    07:00 +12°C° 0 mm 1 mps 630 mmHg 58%
    08:00 +13°C° 0 mm 0 mps 631 mmHg 52%
    09:00 +15°C° 0 mm 0 mps 632 mmHg 46%
    10:00 +18°C° 0.1 mm 1 mps 632 mmHg 46%
    11:00 +19°C° 0.1 mm 1 mps 633 mmHg 45%
    12:00 +19°C° 0.1 mm 2 mps 633 mmHg 44%
    13:00 +19°C° 0.4 mm 1 mps 632 mmHg 47%
    14:00 +19°C° 0.4 mm 1 mps 632 mmHg 49%
    15:00 +18°C° 0.4 mm 1 mps 632 mmHg 52%
    16:00 +16°C° 0.1 mm 1 mps 631 mmHg 59%
    17:00 +13°C° 0.1 mm 0 mps 631 mmHg 67%
    18:00 +11°C° 0.1 mm 0 mps 630 mmHg 74%
    19:00 +11°C° 0 mm 0 mps 631 mmHg 75%
    20:00 +10°C° 0 mm 0 mps 631 mmHg 76%
    21:00 +10°C° 0 mm 0 mps 631 mmHg 77%
    22:00 +9°C° 0 mm 0 mps 631 mmHg 79%
    23:00 +9°C° 0 mm 0 mps 631 mmHg 81%

    20 October, Sunday

    Time Temperature Precipitation Wind Pressure Humidity
    00:00 +9°C° 0 mm 0 mps 630 mmHg 82%
    01:00 +8°C° 0 mm 0 mps 630 mmHg 83%
    02:00 +8°C° 0 mm 0 mps 630 mmHg 84%
    03:00 +8°C° 0 mm 0 mps 630 mmHg 85%
    04:00 +8°C° 0 mm 0 mps 630 mmHg 85%
    05:00 +9°C° 0 mm 1 mps 631 mmHg 84%
    06:00 +9°C° 0 mm 1 mps 631 mmHg 84%
    07:00 +10°C° 0 mm 0 mps 632 mmHg 77%
    08:00 +11°C° 0 mm 0 mps 632 mmHg 71%
    09:00 +13°C° 0 mm 0 mps 633 mmHg 65%
    10:00 +15°C° 0.1 mm 1 mps 633 mmHg 64%
    11:00 +15°C° 0.1 mm 1 mps 634 mmHg 63%
    12:00 +16°C° 0.1 mm 2 mps 634 mmHg 61%
    13:00 +16°C° 0.3 mm 1 mps 633 mmHg 65%
    14:00 +15°C° 0.3 mm 1 mps 633 mmHg 68%
    15:00 +15°C° 0.3 mm 1 mps 633 mmHg 72%
    16:00 +14°C° 0.4 mm 1 mps 633 mmHg 78%
    17:00 +13°C° 0.4 mm 1 mps 633 mmHg 83%
    18:00 +11°C° 0.4 mm 0 mps 632 mmHg 89%
    19:00 +10°C° 0.1 mm 0 mps 632 mmHg 90%
    20:00 +10°C° 0.1 mm 0 mps 632 mmHg 90%
    21:00 +9°C° 0.1 mm 0 mps 632 mmHg 91%
    22:00 +9°C° 0 mm 0 mps 632 mmHg 91%
    23:00 +9°C° 0 mm 0 mps 632 mmHg 92%

    21 October, Monday

    Time Temperature Precipitation Wind Pressure Humidity
    00:00 +10°C° 0 mm 1 mps 632 mmHg 92%
    01:00 +10°C° 0 mm 1 mps 632 mmHg 92%
    02:00 +10°C° 0 mm 1 mps 632 mmHg 91%
    03:00 +10°C° 0 mm 1 mps 632 mmHg 90%
    04:00 +8°C° 0 mm 0 mps 632 mmHg 90%
    05:00 +8°C° 0 mm 0 mps 632 mmHg 89%
    06:00 +7°C° 0 mm 0 mps 632 mmHg 88%
    07:00 +9°C° 0 mm 0 mps 633 mmHg 83%
    08:00 +11°C° 0 mm 0 mps 633 mmHg 77%
    09:00 +13°C° 0 mm 1 mps 634 mmHg 71%
    10:00 +14°C° 0 mm 1 mps 634 mmHg 70%
    11:00 +14°C° 0 mm 1 mps 634 mmHg 68%
    12:00 +15°C° 0 mm 2 mps 634 mmHg 67%
    13:00 +14°C° 0.1 mm 2 mps 634 mmHg 70%
    14:00 +14°C° 0.1 mm 1 mps 634 mmHg 73%
    15:00 +13°C° 0.1 mm 1 mps 633 mmHg 76%
    16:00 +13°C° 0 mm 1 mps 633 mmHg 80%
    17:00 +12°C° 0 mm 1 mps 633 mmHg 85%
    18:00 +11°C° 0 mm 1 mps 633 mmHg 89%
    19:00 +11°C° 0 mm 1 mps 633 mmHg 90%
    20:00 +11°C° 0 mm 1 mps 633 mmHg 90%
    21:00 +10°C° 0 mm 1 mps 633 mmHg 91%
    22:00 +10°C° 0 mm 1 mps 633 mmHg 91%
    23:00 +10°C° 0 mm 1 mps 632 mmHg 91%
    Show more